Wind_Speed
39 38 37 36 35 34 34 34 34 35 37 38 38 38 40 40 40 41 40 38 36 34 32 32 31 30 29 29 29 30 30 31 31 31 31 31 32 31 31 30 30 29 29
39 38 38 37 35 35 35 35 36 37 38 38 39 41 42 44 44 44 43 41 39 37 35 34 33 32 31 31 31 31 31 32 34 34 34 32 33 34 33 33 32 31 31
37 37 38 37 35 35 34 34 36 38 38 37 39 41 44 45 45 45 45 45 43 41 39 36 35 34 32 31 31 31 31 33 35 37 37 35 33 34 35 36 34 33 32
37 38 38 38 38 38 36 37 38 39 40 40 41 42 43 42 43 44 44 43 42 41 40 37 35 34 31 30 30 31 33 34 36 37 38 38 36 34 32 34 36 35 34
40 41 41 42 42 42 41 40 41 41 42 42 43 43 43 42 42 42 42 41 40 38 37 34 31 30 29 29 30 31 33 34 36 37 37 37 37 36 33 31 34 35 35
45 46 47 47 48 47 47 46 46 46 45 46 45 45 44 42 39 35 33 33 34 33 32 30 28 28 29 29 30 32 34 35 36 36 36 36 35 34 33 30 30 33 35
50 51 52 52 52 52 51 51 51 51 50 50 48 46 44 40 38 32 30 31 31 30 30 29 28 28 29 30 32 34 35 35 35 35 34 34 33 32 32 30 29 30 32
51 53 55 56 56 56 56 56 55 54 53 52 50 47 42 36 33 31 30 31 30 30 31 31 31 31 32 33 34 35 35 34 33 32 32 31 31 31 30 30 29 28 29
46 49 52 54 55 55 55 55 54 54 54 53 49 44 39 36 34 33 32 31 31 30 32 33 33 34 34 35 34 34 33 32 31 30 29 29 29 29 28 29 29 28 27
42 45 48 51 53 54 54 54 53 53 52 50 47 42 38 36 35 34 34 33 32 33 34 34 34 34 34 33 32 31 30 30 29 28 28 28 28 28 27 27 27 27 26
41 43 44 46 47 48 49 50 50 48 46 45 41 40 36 34 34 35 35 33 33 33 34 33 33 33 33 32 31 30 29 29 28 29 29 29 29 29 28 27 27 27 26
38 39 39 39 39 40 40 41 42 41 39 37 34 33 34 34 34 34 34 34 34 33 33 32 32 32 32 32 31 31 30 30 30 30 30 30 30 31 30 30 29 29 27
35 34 33 33 33 32 32 33 33 33 32 31 31 30 31 32 33 33 33 34 33 32 32 32 32 32 33 33 33 32 32 33 33 33 33 32 32 32 32 32 32 31 30
30 28 27 27 26 25 25 26 26 26 27 28 29 28 28 30 32 32 31 32 31 31 31 32 33 33 33 33 33 34 34 34 34 34 34 34 34 34 34 34 34 34 33
27 26 24 22 22 22 23 23 23 23 23 25 27 28 28 29 31 31 31 31 31 31 31 32 33 33 33 33 33 34 34 35 35 35 35 35 35 35 36 36 36 36 36
25 23 22 20 19 20 20 21 22 22 22 23 26 28 30 30 29 28 29 29 30 30 31 32 32 32 32 32 33 34 34 34 35 35 35 36 36 36 36 37 37 37 37
23 22 22 21 19 19 19 20 22 22 22 24 26 27 27 27 28 27 27 28 28 29 30 30 30 31 31 32 32 32 33 33 34 34 35 36 36 36 37 37 37 37 38
22 21 21 20 19 18 19 19 20 20 21 23 25 25 25 25 25 26 26 27 27 27 28 29 29 29 29 29 29 29 30 31 32 32 33 34 35 36 36 36 37 37 37
21 20 19 19 18 17 17 17 17 17 17 18 20 21 22 22 23 23 23 23 24 24 25 25 24 23 23 23 24 25 26 27 29 30 32 33 34 34 35 36 36 36 36
20 19 18 17 16 15 15 14 14 14 14 14 15 16 17 18 18 18 19 19 20 20 19 18 18 18 19 20 22 23 24 26 27 29 30 32 33 35 35 36 36 36 36
20 19 17 16 14 14 13 12 11 11 11 11 11 12 13 13 13 13 13 14 14 13 13 14 15 16 17 19 20 21 23 26 27 29 30 31 32 33 33 34 34 34 34
19 19 18 16 14 13 12 11 10 9 8 8 8 9 10 10 11 11 11 11 10 11 11 13 14 15 16 17 19 22 24 26 27 28 29 29 30 30 31 31 32 32 32
19 18 17 16 14 13 12 11 10 9 8 8 8 8 9 9 10 10 10 9 10 11 11 12 13 14 16 18 20 21 23 24 25 26 27 27 28 28 29 29 29 30 30
21 19 18 17 15 14 12 11 10 9 8 8 7 8 8 9 9 10 10 11 11 11 11 12 13 14 16 17 19 21 22 23 24 25 26 27 27 27 27 26 26 26 27
22 21 19 18 17 15 13 12 11 10 9 8 8 8 9 10 10 11 11 11 11 11 12 12 13 14 16 17 19 20 22 23 24 26 26 27 27 27 26 26 25 25 25
24 22 21 20 19 17 15 14 13 12 11 10 10 10 10 11 11 12 12 12 12 13 13 13 14 15 16 17 19 20 22 23 24 26 26 27 27 26 25 25 24 24 24
Wind_Direction
262 261 261 261 261 263 264 267 267 267 267 267 267 266 265 266 268 269 270 270 271 272 272 271 271 270 271 272 276 279 282 285 287 290 292 293 294 293 292 290 288 286 283
260 260 259 260 261 263 265 267 267 268 270 269 267 264 262 263 264 266 266 266 267 269 269 267 266 266 267 269 272 275 280 283 286 288 289 290 291 291 290 288 286 284 281
259 259 259 261 262 263 265 268 270 270 270 270 269 267 266 264 262 262 262 262 264 265 266 262 261 263 264 267 270 275 280 284 287 289 290 290 288 288 288 287 284 282 278
260 260 262 265 267 268 269 270 270 271 271 271 270 268 266 264 263 261 261 261 262 265 264 263 264 264 264 268 272 277 282 285 287 289 290 291 290 288 285 285 283 280 277
263 263 265 267 269 272 273 274 273 272 271 272 272 270 268 264 262 262 262 260 261 262 263 265 264 264 268 272 276 281 284 287 289 290 291 291 291 290 287 283 281 280 278
265 265 267 269 271 272 274 275 275 275 275 275 273 271 267 263 264 265 262 262 263 263 263 263 265 268 273 275 280 285 287 289 290 290 291 291 291 290 289 285 279 278 277
264 265 267 268 270 271 273 273 274 275 275 275 274 274 271 267 267 264 262 266 266 264 265 266 270 273 276 279 283 286 288 290 290 290 290 290 290 289 289 286 281 277 276
267 266 267 267 268 270 271 272 273 273 274 274 273 275 273 268 263 261 263 266 265 264 266 268 271 275 278 281 284 286 288 289 289 289 289 290 290 290 289 286 284 280 276
273 271 271 270 270 270 270 270 271 272 273 272 273 272 267 264 262 263 262 263 264 267 268 268 272 275 279 282 284 286 287 287 287 287 286 287 288 289 289 288 285 283 280
283 279 276 274 273 271 270 270 270 270 271 271 269 269 265 264 263 260 260 260 264 267 267 266 270 273 276 279 281 283 283 284 284 283 283 284 285 287 287 287 286 283 280
293 289 284 281 277 276 273 271 270 269 270 269 268 266 263 260 258 257 259 259 263 264 264 265 268 271 273 275 277 279 280 281 281 281 281 282 282 282 284 285 285 285 282
300 295 291 287 282 280 275 270 268 268 268 267 263 259 259 258 257 257 259 260 261 261 261 264 267 270 271 273 274 276 276 277 278 279 279 280 280 280 281 282 283 283 282
306 300 296 291 286 280 274 268 265 264 264 262 257 256 256 255 256 257 257 258 258 258 261 264 266 268 270 271 273 274 275 276 276 277 278 278 279 279 279 279 280 280 279
311 306 301 294 289 281 273 266 262 259 258 254 252 251 251 252 253 252 253 254 255 257 261 263 266 267 269 270 272 273 275 276 277 277 278 279 279 279 279 278 278 277 277
314 310 307 302 294 285 274 264 261 258 254 251 249 250 250 250 250 251 253 254 257 258 261 263 265 267 269 270 272 274 275 277 278 279 280 280 280 279 279 278 278 276 275
316 311 309 308 301 295 280 268 265 260 255 251 249 252 252 252 253 254 255 256 258 260 261 263 265 267 269 272 273 275 277 278 279 280 282 283 282 282 280 279 278 276 274
316 311 308 308 303 296 287 279 271 267 262 256 252 252 255 255 256 258 259 259 260 262 263 265 267 269 271 273 275 278 280 281 282 283 284 284 284 284 283 282 280 277 275
320 315 312 310 305 298 291 288 282 274 269 262 257 256 257 259 260 262 261 263 264 264 265 268 270 272 273 276 278 280 282 284 285 286 287 287 287 286 285 283 282 279 277
320 320 317 316 312 306 300 299 295 288 280 271 266 265 264 265 266 268 267 266 266 267 269 270 271 273 276 279 282 284 286 288 289 290 290 290 289 288 287 286 283 281 278
317 320 321 320 319 316 310 306 302 295 289 279 274 269 266 265 266 266 266 266 265 266 269 271 273 276 280 283 286 288 291 293 294 295 294 293 292 291 289 288 285 282 279
309 315 320 324 324 324 320 313 307 301 294 285 275 268 265 262 264 266 267 265 264 267 270 273 276 280 284 287 291 294 297 299 300 300 299 298 297 294 292 290 287 283 280
299 305 311 316 321 325 325 320 312 304 296 288 278 270 264 259 259 263 265 266 267 271 273 276 281 285 289 293 298 302 304 306 306 306 305 304 303 300 297 294 290 284 281
289 295 300 306 311 316 320 319 312 302 291 283 276 268 264 262 260 260 261 263 266 271 275 280 286 291 296 301 305 309 312 314 315 315 314 312 310 307 304 301 296 290 285
281 284 288 292 297 301 305 308 309 304 294 283 273 267 264 262 260 261 264 266 270 275 279 285 290 295 301 307 313 317 321 324 325 325 323 321 317 314 312 309 304 298 292
275 277 279 281 282 285 289 291 293 294 291 285 277 271 268 267 267 267 268 270 274 278 282 286 291 298 307 314 320 324 327 330 331 331 329 326 323 320 317 315 312 306 301
271 271 273 274 275 275 276 276 278 280 280 278 275 273 271 270 270 271 272 274 276 280 283 287 294 303 312 318 323 327 330 333 334 334 334 333 331 328 325 322 319 314 308
Height
5872 5873 5873 5873 5873 5873 5873 5873 5872 5872 5870 5870 5869 5868 5868 5867 5866 5866 5865 5865 5865 5865 5865 5864 5863 5861 5860 5860 5859 5858 5857 5856 5855 5854 5852 5850 5847 5845 5844 5842 5840 5839 5838
5863 5863 5864 5864 5864 5864 5864 5864 5863 5862 5861 5860 5859 5858 5858 5857 5857 5857 5856 5856 5856 5856 5855 5854 5853 5852 5852 5851 5851 5850 5849 5848 5846 5846 5845 5844 5842 5838 5836 5834 5833 5832 5831
5855 5854 5854 5853 5853 5853 5853 5854 5853 5852 5851 5850 5849 5848 5848 5847 5847 5846 5845 5846 5846 5846 5845 5844 5844 5843 5843 5843 5843 5842 5841 5840 5838 5836 5835 5835 5834 5831 5828 5826 5824 5823 5823
5846 5845 5845 5845 5844 5843 5843 5844 5843 5842 5841 5840 5839 5837 5836 5836 5836 5834 5835 5835 5836 5836 5836 5835 5835 5834 5834 5834 5835 5834 5833 5832 5830 5828 5826 5824 5823 5823 5822 5818 5815 5814 5814
5837 5837 5836 5836 5835 5835 5834 5833 5833 5832 5830 5829 5829 5827 5825 5824 5824 5824 5825 5826 5826 5827 5827 5826 5826 5826 5826 5827 5826 5826 5825 5824 5822 5819 5817 5815 5813 5812 5812 5812 5808 5806 5805
5827 5827 5827 5826 5826 5825 5824 5824 5823 5822 5821 5819 5818 5816 5814 5812 5813 5814 5815 5817 5817 5818 5818 5818 5818 5819 5819 5818 5818 5817 5816 5815 5813 5811 5809 5807 5805 5803 5802 5802 5801 5799 5796
5816 5816 5815 5814 5814 5813 5812 5812 5811 5811 5810 5809 5807 5805 5803 5802 5804 5805 5807 5808 5809 5809 5809 5810 5810 5810 5810 5810 5810 5809 5807 5806 5804 5802 5800 5798 5797 5795 5794 5793 5792 5791 5789
5804 5803 5802 5802 5801 5801 5800 5799 5799 5798 5798 5797 5797 5796 5793 5792 5794 5796 5797 5799 5800 5800 5801 5801 5802 5802 5802 5802 5801 5800 5798 5797 5795 5793 5792 5790 5788 5787 5786 5785 5784 5783 5782
5793 5791 5789 5788 5787 5787 5786 5786 5785 5785 5785 5785 5785 5784 5784 5784 5785 5786 5788 5789 5790 5791 5792 5792 5793 5793 5793 5793 5792 5791 5789 5788 5786 5785 5784 5782 5781 5779 5778 5777 5776 5776 5775
5780 5777 5775 5773 5772 5771 5771 5771 5771 5771 5771 5770 5771 5773 5773 5774 5775 5777 5778 5780 5781 5782 5783 5784 5784 5784 5784 5784 5783 5782 5781 5780 5779 5777 5776 5775 5774 5772 5771 5769 5768 5767 5767
5768 5764 5761 5758 5757 5756 5755 5756 5757 5757 5757 5757 5758 5760 5761 5763 5765 5767 5768 5770 5772 5773 5774 5774 5775 5775 5775 5775 5774 5774 5773 5772 5771 5770 5769 5767 5766 5765 5764 5762 5761 5760 5759
5756 5752 5748 5745 5743 5742 5742 5742 5743 5745 5746 5746 5747 5748 5751 5753 5755 5757 5759 5761 5762 5763 5764 5765 5765 5766 5766 5766 5766 5765 5765 5764 5763 5762 5761 5759 5758 5757 5756 5754 5753 5752 5751
5746 5742 5738 5735 5732 5731 5731 5732 5733 5734 5736 5736 5738 5739 5741 5743 5745 5747 5749 5751 5753 5754 5755 5756 5757 5757 5757 5757 5757 5757 5756 5755 5754 5753 5752 5751 5750 5748 5747 5746 5745 5744 5743
5738 5734 5730 5727 5724 5723 5723 5723 5724 5725 5727 5729 5730 5730 5732 5734 5736 5738 5740 5742 5743 5745 5746 5747 5748 5748 5748 5748 5748 5748 5747 5746 5745 5744 5743 5742 5740 5739 5738 5737 5736 5734 5734
5733 5729 5725 5722 5719 5717 5716 5717 5718 5718 5719 5720 5722 5723 5724 5726 5727 5729 5731 5733 5735 5736 5738 5738 5739 5740 5739 5739 5739 5739 5738 5737 5736 5735 5733 5732 5730 5729 5727 5726 5725 5724 5724
5730 5726 5722 5718 5715 5713 5712 5711 5711 5711 5712 5713 5714 5715 5716 5717 5719 5721 5723 5725 5726 5728 5729 5730 5730 5731 5731 5730 5730 5730 5729 5728 5727 5725 5724 5722 5720 5718 5717 5716 5714 5713 5713
5726 5723 5719 5715 5712 5709 5707 5706 5706 5705 5705 5706 5707 5707 5708 5709 5711 5713 5715 5717 5718 5720 5721 5722 5722 5722 5722 5722 5722 5721 5720 5719 5717 5716 5714 5712 5710 5708 5706 5704 5703 5702 5701
5723 5719 5715 5712 5708 5705 5703 5701 5700 5699 5699 5700 5700 5701 5702 5703 5704 5706 5708 5710 5711 5712 5713 5713 5714 5714 5714 5714 5713 5713 5712 5710 5709 5707 5704 5702 5700 5697 5695 5693 5692 5690 5689
5719 5715 5712 5708 5705 5702 5699 5697 5695 5694 5694 5694 5695 5695 5696 5698 5699 5700 5702 5703 5704 5705 5706 5706 5707 5707 5707 5707 5706 5705 5704 5702 5700 5697 5695 5692 5690 5687 5685 5682 5680 5679 5678
5715 5712 5708 5705 5701 5698 5696 5694 5692 5691 5690 5690 5690 5691 5692 5693 5694 5695 5696 5697 5698 5699 5700 5700 5701 5701 5701 5700 5699 5698 5696 5694 5692 5689 5686 5683 5680 5677 5674 5672 5669 5668 5666
5711 5708 5705 5701 5698 5695 5693 5691 5689 5687 5687 5686 5687 5687 5688 5689 5690 5691 5692 5692 5693 5694 5695 5695 5696 5696 5695 5694 5693 5691 5689 5686 5683 5680 5677 5674 5670 5667 5664 5661 5659 5657 5655
5705 5703 5701 5698 5695 5692 5690 5688 5686 5685 5684 5684 5684 5684 5685 5686 5687 5688 5688 5689 5690 5690 5691 5691 5691 5690 5690 5689 5687 5685 5682 5679 5676 5672 5668 5665 5661 5658 5654 5651 5649 5646 5645
5700 5698 5696 5694 5692 5690 5687 5686 5684 5683 5682 5681 5681 5682 5682 5683 5684 5684 5685 5685 5686 5686 5687 5687 5686 5686 5685 5683 5681 5679 5675 5672 5668 5664 5660 5657 5653 5649 5646 5642 5639 5637 5635
5693 5692 5691 5689 5688 5686 5684 5683 5682 5680 5679 5679 5679 5679 5680 5680 5681 5681 5682 5682 5683 5683 5683 5682 5682 5681 5680 5678 5675 5672 5669 5665 5662 5658 5654 5650 5646 5642 5638 5634 5631 5628 5626
5686 5685 5684 5684 5683 5682 5681 5680 5678 5678 5677 5677 5676 5677 5677 5677 5678 5678 5678 5679 5679 5679 5679 5678 5678 5677 5675 5673 5670 5667 5663 5660 5656 5652 5648 5644 5640 5636 5632 5628 5624 5621 5618
5678 5678 5678 5677 5677 5676 5676 5675 5674 5674 5674 5674 5674 5674 5674 5674 5674 5675 5675 5675 5675 5675 5675 5674 5673 5672 5670 5667 5665 5662 5658 5655 5651 5648 5644 5639 5635 5631 5626 5622 5618 5615 5611